Regional Weather Roundup
Issued by NWS Boston, MA

Home | Current Version | Previous Version | Text Only | Print | Product List | Glossary On
Versions: 1 2 3 4 5 6 7 8 9 10 11 12 13 14 15 16 17 18 19 20 21 22 23 24 25 26 27 28 29 30 31 32 33 34 35 36 37 38 39 40 41 42 43 44 45 46 47 48 49 50
000
ASUS41 KBOX 291310
RWRBOX

REGIONAL WEATHER ROUNDUP
NATIONAL WEATHER SERVICE TAUNTON MA
900 AM EDT SAT AUG 29 2015

NOTE:  "FAIR" INDICATES FEW OR NO CLOUDS BELOW 12,000 FEET WITH NO
SIGNIFICANT WEATHER AND/OR OBSTRUCTIONS TO VISIBILITY.  THE FOLLOWING
OBSERVATION LOCATIONS DO NOT REPORT PRESENT WEATHER...PROVINCETOWN...
SMITHFIELD...BLOCK ISLAND...KEENE...AND OXFORD.

MAZALL-291400-
EASTERN MASSACHUSETTS

CITY           SKY/WX    TMP DP  RH WIND       PRES   REMARKS
BOSTON         SUNNY     72  55  55 VRB5      30.19S
BEVERLY        SUNNY     68  57  68 SW3       30.18S
LAWRENCE       SUNNY     66  56  70 SW5       30.20S
BEDFORD        SUNNY     67  56  67 SW3       30.18S
BLUE HILL        N/A     68  55  63 W8        30.20R
NORWOOD        SUNNY     69  58  67 SW3       30.19S
MARSHFIELD     SUNNY     72  59  64 W3        30.20S
PLYMOUTH       SUNNY     70  58  65 W3        30.20F
TAUNTON        SUNNY     71  59  65 CALM      30.19S
NEW BEDFORD    SUNNY     72  60  66 CALM      30.19S
$$

MAZALL-291400-
CAPE COD AND THE ISLANDS

CITY           SKY/WX    TMP DP  RH WIND       PRES   REMARKS
FALMOUTH       SUNNY     72  63  73 W5        30.20S
HYANNIS        SUNNY     74  63  68 W7        30.18S
CHATHAM        SUNNY     74  66  76 VRB3      30.20S
PROVINCETOWN   SUNNY     72  57  60 W5        30.19F
NANTUCKET      SUNNY     75  63  66 W9        30.20S
MARTHAS VNYRD  SUNNY     73  64  73 W6        30.20S
$$

MAZALL-291400-
CENTRAL AND WESTERN MASSACHUSETTS

CITY           SKY/WX    TMP DP  RH WIND       PRES   REMARKS
WORCESTER      SUNNY     66  53  63 W9        30.22S
FITCHBURG      SUNNY     70  55  59 W8        30.20S
ORANGE         CLOUDY    56  56 100 CALM      30.22S FOG
SPRINGFIELD    SUNNY     62  60  94 VRB1      30.21S
WESTFIELD      SUNNY     63  56  78 CALM      30.22S
NORTH ADAMS    MOSUNNY   55  53  93 CALM      30.23F
PITTSFIELD     PTSUNNY   57  55  93 CALM      30.22F
$$

RIZALL-291400-
RHODE ISLAND

CITY           SKY/WX    TMP DP  RH WIND       PRES   REMARKS
PROVIDENCE     MOSUNNY   71  57  61 VRB3      30.21S
NEWPORT        SUNNY     73  59  61 CALM      30.20S
BLOCK ISLAND   SUNNY     73  59  60 CALM      30.21S
SMITHFIELD     SUNNY     70  57  64 W5        30.21S
WESTERLY       SUNNY     71  61  70 CALM      30.21S
$$

CTZALL-291400-
CONNECTICUT

CITY           SKY/WX    TMP DP  RH WIND       PRES   REMARKS
BRADLEY INTL   MOSUNNY   66  55  67 CALM      30.21S
HARTFORD       SUNNY     65  58  78 CALM      30.22R
BRIDGEPORT     SUNNY     72  57  59 N6        30.22R
DANBURY        SUNNY     66  56  70 CALM      30.24S
GROTON         SUNNY     71  60  68 CALM      30.21R
NEW HAVEN      SUNNY     69  58  67 W3        30.22S
CHESTER        NOT AVBL
MERIDEN          N/A     68  57  68 CALM      30.22S
WILLIMANTIC    SUNNY     63  56  78 CALM      30.22S
OXFORD         SUNNY     64  54  68 CALM      30.26R
$$

MEZ002-015-021-024-NHZ003-005-008-011-012-014-VTZ005-008-291400-
NORTHERN NEW ENGLAND

CITY           SKY/WX    TMP DP  RH WIND       PRES   REMARKS
PORTLAND ME    PTSUNNY   67  60  78 NW3       30.17F
BANGOR ME      CLOUDY    63  58  83 SW3       30.17S
CONCORD NH     SUNNY     61  56  83 CALM      30.19F
MANCHESTER NH  MOSUNNY   65  55  70 CALM      30.17F
NASHUA NH      SUNNY     65  57  75 CALM      30.19F
PORTSMOUTH NH  PTSUNNY   66  57  73 W5        30.17S
JAFFREY NH     SUNNY     62  56  80 S3        30.21F
KEENE NH       CLOUDY    54  48  82 CALM      30.22F VSB 1/4
BURLINGTON VT  PTSUNNY   62  56  80 CALM      30.19S
MT. WASHINGTON FOG       45  45 100 W22         N/A  VSB 1/16
$$

NYZ052-076-291400-
EASTERN NEW YORK

CITY           SKY/WX    TMP DP  RH WIND       PRES   REMARKS
ALBANY         MOSUNNY   63  56  78 CALM      30.21F
NEW YORK CITY  MOSUNNY   75  55  49 CALM      30.21S
$$

ANZALL-291400-
MARINE OBSERVATIONS

STATION/POSITION TIME  TEMP    WIND        PRES    VSBY  WAVE
                       AIR SEA DIR/SP/G                  HT/PER
                 (UTC) (F)     (DEG/KT/KT) (MB)    (MI)  (FT/S)
BOSTON BUOY      1250   67 68  270/  4/  6 1022.3F         2/10
BUZZARDS BAY     1200          320/  4/  4 1023.5R
NANTUCKET SOUND  1250   72 75  250/ 10/ 10 1022.2S         1
MASS BAY-STELLWA 1204   66 68  270/  8/ 10   N/A    1 7/8  3/11
ISLE OF SHOALS   1300   63     240/  4/  5 1021.4F
S OF BLOCK IS    1208      74                N/A           3/11
$$

......................KEY.........................
  SKY/WX - SKY CONDITION/PRESENT WEATHER
  TMP    - TEMPERATURE IN FAHRENHEIT
  DWPT   - DEWPOINT IN FAHRENHEIT
  RH     - RELATIVE HUMIDITY IN PERCENT
  WIND   - DIRECTION AND SPEED IN MPH
  PRES   - MEAN SEA LEVEL PRESSURE IN INCHES OF HG
  WCI    - WIND CHILL INDEX
  VSB    - VISIBILITY IN MILES
  HX     - HEAT INDEX
  TC     - TEMPERATURE IN CELSIUS
  VRB    - VARIABLE WIND DIRECTION
  N/A    - NOT AVAILABLE


USA.gov is the U.S. government's official web portal to all federal, state and local government web resources and services.